Location: Fessenheim
(48.8667°N, 10.6228°E)
Time: 07:20:04
(UTC+00:00)

Daily predictions for brighter satellites

Satellite Brightness Start Highest point End
(mag) Time Altitude Azimuth Time Altitude Azimuth Time Altitude Azimuth
GEOS 3 Rocket 4.3 17:27:20 10° NE 17:32:39 61° NW 17:37:52 10° WSW
Cosmos 2218 Rocket 4.2 17:27:50 10° N 17:33:50 51° ENE 17:39:48 10° SSE
Helios 1A 4.5 17:30:37 10° N 17:34:28 41° WNW 17:38:19 10° SW
YAOGAN 1 2.8 17:31:37 10° SE 17:35:47 51° ENE 17:39:58 10° N
Cosmos 1818 4.3 17:31:03 10° NNW 17:36:07 37° NE 17:41:10 10° ESE
Cosmos 1633 Rocket 3.0 17:32:41 10° S 17:36:58 67° E 17:41:17 10° NNE
COSMO-SKYMED 1 2.6 17:33:10 10° NNE 17:37:33 86° ESE 17:41:54 10° SSW
Okean O Rocket 3.0 17:35:04 10° ESE 17:38:16 20° ENE 17:41:30 10° NNE
Cosmos 1862 Rocket 3.5 17:34:50 10° N 17:39:11 88° ENE 17:43:33 10° S
Cosmos 1331 Rocket 4.0 17:34:19 10° NNW 17:39:37 79° ENE 17:44:55 10° SSE
Cosmos 1726 2.0 17:40:25 10° S 17:43:40 48° E 17:46:58 10° NNE
Cosmos 494 Rocket 4.1 17:38:27 10° SSW 17:43:42 87° WNW 17:48:58 10° NNE
SL-08 R/B 3.5 17:42:22 10° NNE 17:47:21 88° WNW 17:52:17 10° SSW
Lacrosse 5 3.1 17:43:00 10° W 17:47:44 37° NNW 17:52:30 10° NE
Cosmos 1975 3.0 17:45:13 10° SSE 17:48:55 45° E 17:52:39 10° NNE
NOSS 2-2 (E) 4.0 17:49:24 10° S 17:52:05 23° ESE 17:54:43 10° ENE
Meteor 2-11 Rocket 4.4 17:46:09 10° N 17:52:18 76° E 17:58:26 10° SSE
Cosmos 1844 Rocket 4.0 17:47:34 10° NW 17:52:49 44° WSW 17:58:03 10° S
SL-8 R/B 3.8 17:48:20 10° W 17:53:06 74° SSW 17:57:33 12° ESE
Cosmos 864 Rocket 4.5 17:48:23 10° N 17:54:43 73° E 18:00:56 10° SSE
Landsat 4 4.3 17:51:31 10° SE 17:54:47 33° ENE 17:58:05 10° N
Cosmos 1805 3.6 17:51:22 10° SSE 17:54:53 39° E 17:58:25 10° NNE
Resurs 01 Rocket 3.4 17:52:43 11° E 17:55:00 15° ENE 17:57:33 10° NNE
Cosmos 1452 Rocket 4.1 17:51:19 10° NNW 17:56:32 61° WSW 18:01:42 10° S
NOSS 2-3 (E) 3.5 17:54:51 10° SSW 17:58:26 48° SE 18:02:30 10° NE
Cosmos 1241 Rocket 4.5 17:52:41 10° NW 17:59:00 71° NE 18:05:11 10° SE
Cosmos 1943 Rocket 3.7 17:56:15 10° N 18:00:22 20° NE 18:03:55 12° E
Iridium 2 4.0 17:57:31 10° NNW 18:00:55 62° W 18:04:17 10° S
Cosmos 1048 Rocket 4.3 17:55:54 10° SSW 18:01:16 76° WNW 18:06:40 10° NNE
Resurs 1-3 4.3 17:58:06 10° SE 18:01:59 33° ENE 18:05:55 10° N
CZ-4 R/B 1.6 17:59:31 10° SE 18:03:12 44° ENE 18:06:52 10° N
Cosmos 2219 Rocket 2.2 17:57:44 10° S 18:03:12 60° ESE 18:08:44 10° NE
USA 305 2.3 18:02:43 10° NW 18:04:53 35° NNE 18:06:05 20° ENE
CZ-4C R/B 4.2 18:00:37 10° WNW 18:05:02 24° NNW 18:10:17 10° NE
Cosmos 1470 Rocket 3.5 18:02:36 10° S 18:06:57 84° E 18:11:23 10° N
NOSS 3-1 (C) 3.9 18:02:56 10° S 18:07:06 27° ESE 18:11:51 10° ENE
SL-16 R/B 3.7 18:02:00 10° WSW 18:07:17 39° NW 18:12:37 10° NNE
IGS 5A 3.4 18:03:56 10° SSE 18:08:02 89° WSW 18:12:12 10° NNW
Cosmos 2181 Rocket 4.0 18:01:59 10° S 18:08:22 72° E 18:14:43 10° NNE
USA 267 3.8 18:03:02 11° E 18:08:59 49° NNE 18:15:15 10° WNW
Okean-O 4.2 18:07:49 15° E 18:09:35 18° ENE 18:12:37 10° NNE
Cosmos 1733 3.0 18:06:42 10° S 18:10:23 88° E 18:14:06 10° N
IKONOS-2 4.4 18:06:28 10° NNE 18:10:43 87° ESE 18:14:55 10° SSW
CZ-4B DEB 4.3 18:05:21 10° SSE 18:10:49 81° WSW 18:16:18 10° NNW
PAYLOAD B 4.2 18:05:49 10° SSE 18:11:23 80° ENE 18:16:58 10° NNW
NOSS 2-2 (D) 3.8 18:08:48 10° S 18:11:35 26° ESE 18:13:00 19° E
Cosmos 2242 Rocket 4.2 18:09:26 10° N 18:13:34 35° ENE 18:17:09 13° SE
NOSS 2-2 (C) 3.7 18:11:49 10° S 18:14:39 27° ESE 18:15:55 21° E
DMSP B5D1-3 4.5 18:09:46 10° NNE 18:14:52 66° ESE 18:19:56 10° S
SPOT 1/Viking Rocket 4.1 18:17:52 14° SE 18:21:46 38° ENE 18:26:30 10° N
MOS 1-B 4.3 18:17:58 10° SSE 18:23:42 71° ENE 18:29:28 10° NNW
USA 308 3.2 18:20:58 10° WNW 18:24:18 47° SW 18:26:48 18° SSE
SL-14 R/B 3.2 18:20:31 10° N 18:24:29 87° W 18:28:22 10° S
PSLV R/B 3.7 18:20:41 10° SSE 18:24:30 70° ENE 18:28:24 10° N
CZ-4B R/B 3.0 18:22:51 10° SSE 18:28:07 79° ENE 18:33:28 10° NNW
CSL-04 Rocket 3.9 18:25:41 15° SE 18:29:42 46° ENE 18:34:45 10° N
Cosmos 2322 Rocket 3.7 18:25:06 10° WSW 18:30:17 38° NW 18:35:32 10° NNE
APEX 2.9 18:26:44 10° NNW 18:30:38 81° ENE 18:32:34 24° SE
CZ-4C R/B 3.1 18:27:26 10° NNE 18:30:45 47° E 18:34:03 10° S
Cosmos 1703 Rocket 3.8 18:30:46 10° NNW 18:35:13 74° W 18:39:40 10° S
Cosmos 2239 Rocket 4.5 18:29:17 10° N 18:35:24 60° ENE 18:41:31 10° SSE
Okean 1-7 3.7 18:31:12 10° NNW 18:35:27 56° W 18:39:41 10° S
Cosmos 2278 Rocket 2.4 18:30:43 10° NNW 18:36:17 53° NE 18:39:35 24° ESE
Cosmos 1821 Rocket 4.0 18:31:09 10° N 18:37:25 83° E 18:43:46 10° S
SME Rocket 4.1 18:31:31 10° SSE 18:39:30 75° ENE 18:44:43 10° NNW
USA 306 2.9 18:39:54 10° WNW 18:43:41 61° SW 18:45:14 32° SE
Cosmos 1933 Rocket 3.8 18:41:22 10° SSW 18:45:44 71° W 18:50:07 10° N
Cosmos 1269 Rocket 4.3 18:41:24 10° S 18:46:24 44° ESE 18:51:24 10° NE
Cosmos 1766 3.0 18:46:44 10° S 18:50:29 65° E 18:54:14 10° NNE
BREEZE-M R/B 4.4 18:45:57 10° WNW 18:51:14 83° SSW 18:57:41 26° ESE
ATLAS 3B R/B 2.7 18:45:30 10° SSW 18:52:17 63° ESE 18:59:36 10° NE
Landsat 7 4.3 18:49:06 10° S 18:53:45 61° W 18:58:26 10° NNW
ISS -3.8 18:52:42 10° WNW 18:56:02 71° SSW 18:56:23 63° SSE
CARTOSAT-1 4.1 18:55:50 37° ENE 18:56:06 37° ENE 19:00:03 10° N
USA 307 2.3 18:53:58 10° WNW 18:56:18 53° WSW 18:56:18 53° WSW
Nadezhda 3 Rocket 3.9 18:51:08 10° S 18:57:28 75° E 19:03:50 10° NNE
Meteor 2-5 Rocket 4.3 18:52:44 10° N 18:58:02 37° ENE 18:59:10 33° E
Cosmos 2360 Rocket 3.9 18:53:19 10° WSW 18:58:24 33° NW 19:03:31 10° NNE
CENTAUR R/B 4.3 18:52:30 10° NW 18:58:48 29° NNE 19:04:39 14° ENE
USA 186 1.6 19:00:54 73° SW 19:01:05 77° W 19:04:05 10° NNW
COSMOS 2455 2.9 18:55:17 10° NW 19:01:20 79° WSW 19:04:56 26° SSE
SJ-6B 3.6 18:57:37 10° S 19:01:33 53° W 19:05:30 10° NNW
Okean 2 4.3 19:01:57 10° NNW 19:05:50 47° W 19:09:41 10° SSW
Cosmos 2237 Rocket 2.5 19:00:44 10° S 19:06:02 42° ESE 19:11:22 10° NE
Cosmos 2221 Rocket 4.5 19:02:27 10° N 19:06:07 33° ENE 19:06:07 33° ENE
Cosmos 2333 Rocket 3.7 19:02:32 10° WSW 19:07:43 36° NW 19:12:58 10° NNE
Cosmos 2369 Rocket 3.8 19:05:06 10° N 19:08:56 18° NE 19:10:01 18° NE
Cosmos 2322 4.1 19:04:20 10° SW 19:10:03 66° WNW 19:15:46 10° NNE
COSMOS 2428 2.8 19:06:37 10° SSW 19:12:19 78° WNW 19:18:01 10° NNE
NOSS 2-3 (C) 4.5 19:09:07 10° WSW 19:12:48 43° NW 19:17:08 10° NE
Okean O Rocket 2.2 19:10:51 16° S 19:14:12 55° W 19:18:35 10° NNW
Cosmos 1674 Rocket 4.5 19:10:37 10° N 19:13:56 33° NE 19:13:56 33° NE
USA 215 3.3 19:12:25 27° ENE 19:15:51 52° SE 19:22:12 10° SSW
NOSS 3-1 (A) 4.0 19:12:09 10° S 19:24:15 - NE 19:14:44 29° S
Meteor 1-24 Rocket 3.8 19:13:15 10° N 19:18:33 47° ENE 19:18:56 47° E
Cosmos 1818 4.1 19:14:35 10° NW 19:19:55 54° WSW 19:22:26 29° S
ADEOS Rocket 3.5 19:15:28 22° SSE 19:20:57 83° ENE 19:28:22 10° NNW
SPOT 5 4.0 19:24:11 27° NE 19:24:11 27° NE 19:27:01 10° N
Cosmos 1992 Rocket 4.5 19:20:43 10° NNW 19:25:51 58° WSW 19:28:19 30° S
Cosmos 1869 Rocket 4.4 19:21:40 10° SSW 19:25:57 50° WNW 19:30:13 10° N
BREEZE-M DEB (TANK) 4.0 19:24:07 10° WNW 19:27:17 42° WSW 19:27:17 42° WSW
Cosmos 1470 4.1 19:31:42 30° NNE 19:31:42 30° NNE 19:33:44 10° N
Resurs 01 Rocket 1.6 19:30:14 63° SSW 19:30:53 78° WSW 19:35:21 10° NNW
IRS-1C Rocket 4.0 19:30:28 63° ESE 19:31:10 72° ENE 19:36:26 10° NNW
Lacrosse 5 3.0 19:27:01 10° WNW 19:31:44 35° N 19:33:00 31° NE
Ariane Rocket 3.9 19:38:02 34° NE 19:38:02 34° NE 19:41:45 10° N
CZ-4 R/B 4.0 19:35:37 10° SW 19:38:12 17° W 19:40:48 10° NW
NOSS 0 Rocket 3.9 19:35:43 10° SSW 19:41:55 84° WNW 19:48:12 10° NNE
Cosmos 1943 Rocket 2.0 19:39:20 10° NNW 19:45:02 81° ENE 19:45:26 75° ESE
Okean-O 2.9 19:45:21 60° WSW 19:45:35 61° WSW 19:49:59 10° NNW
Cosmos 2219 Rocket 4.1 19:42:43 10° WSW 19:47:33 29° NW 19:52:25 10° NNE
Cosmos 1900 4.4 19:45:07 10° SW 19:50:01 73° NW 19:51:26 46° NNE
Meteor 1-12 Rocket 4.1 19:50:09 72° SSE 19:50:45 81° E 19:56:41 10° NNE
USA 267 3.1 19:50:23 61° ESE 19:51:43 88° NNE 19:58:18 10° NW
Gbstr 26 Del rocket 4.3 19:47:23 10° WSW 19:55:25 80° SSE 19:57:53 49° ENE
CZ-4C R/B 4.3 19:50:40 10° NW 19:55:42 24° NNE 19:59:04 18° NE
NOSS 3-1 (C) 3.6 19:52:14 10° WSW 19:57:19 60° NW 20:03:31 10° NE
Cosmos 1605 Rocket 3.8 19:52:26 10° N 19:58:34 87° W 19:59:17 71° S
MOS 1 4.4 20:05:10 66° SW 20:05:40 69° WSW 20:11:20 10° NNW
Terra 3.3 20:08:34 27° NNE 20:08:34 27° NNE 20:10:58 10° N
Cosmos 1980 3.9 20:04:52 10° SW 20:10:29 66° WNW 20:16:08 10° NNE
Cosmos 1733 Rocket 4.4 20:13:35 38° NW 20:13:35 38° NW 20:16:46 10° N
BREEZE-M DEB (TANK) 4.2 19:58:39 10° W 20:12:39 72° S 20:12:45 72° S
ERS-1 Rocket 4.0 20:19:35 39° N 20:19:35 39° N 20:22:48 10° N
Cosmos 2278 Rocket 3.7 20:15:16 10° NW 20:20:04 29° WSW 20:21:27 26° SW
ATLAS 3B R/B 3.8 20:36:39 10° WSW 20:43:24 45° NNW 20:50:38 10° NE
Cosmos 2237 Rocket 3.4 20:44:49 10° WSW 20:50:09 39° NW 20:55:30 10° NNE
CENTAUR R/B 3.5 20:43:35 10° NW 20:51:18 54° NE 20:51:48 53° NE
Cosmos 2369 Rocket 3.3 20:48:20 10° NNW 20:51:47 38° NNW 20:51:47 38° NNW
USA 215 3.6 20:59:51 61° WNW 20:59:51 61° WNW 21:05:30 10° WSW
NOSS 3-2 (A) 4.5 20:52:14 10° NW 20:58:52 49° NNE 20:58:52 49° NNE
Lacrosse 5 4.0 21:10:12 10° NW 21:12:11 24° NW 21:12:11 24° NW
Cosmos 1943 Rocket 4.4 21:24:20 10° WNW 21:26:56 17° W 21:26:56 17° W
CZ-4C R/B 3.7 21:39:14 10° NW 21:44:10 42° N 21:44:10 42° N
CENTAUR R/B 4.2 22:34:19 10° NW 22:38:56 37° WNW 22:38:56 37° WNW
